| time (UTC) | temp F | wind direction | speed knots | gust knots | rain 1hr in | rain 24hr in | rain mn in | humidity % | barometer mb |
| 20260503174603 | 45 | 239 | 3.5 | 13.0 | 0.00 | 0.00 | 0.00 | 85 | 1014.3 |
| 20260503173048 | 47 | 208 | 2.6 | 10.4 | 0.00 | 0.00 | 0.00 | 79 | 1014.1 |
| 20260503171544 | 49 | 126 | 3.5 | 8.7 | 0.00 | 0.00 | 0.00 | 70 | 1014.0 |
| 20260503081554 | 56 | 93 | 2.6 | 6.1 | 0.00 | 0.00 | 0.00 | 57 | 1013.4 |
| 20260503071608 | 56 | 129 | 3.5 | 6.1 | 0.00 | 0.00 | 0.00 | 40 | 1013.7 |
| 20260503070110 | 57 | 123 | 1.7 | 6.1 | 0.00 | 0.00 | 0.00 | 38 | 1013.8 |
| 20260503054557 | 58 | 127 | 3.5 | 10.4 | 0.00 | 0.00 | 0.00 | 50 | 1014.1 |
| 20260503053043 | 58 | 229 | 4.3 | 9.6 | 0.00 | 0.00 | 0.00 | 51 | 1014.2 |
| 20260503051552 | 57 | 142 | 3.5 | 12.2 | 0.00 | 0.00 | 0.00 | 50 | 1014.2 |
| 20260503050056 | 56 | 117 | 2.6 | 10.4 | 0.00 | 0.00 | 0.00 | 50 | 1014.2 |
| 20260503044554 | 55 | 146 | 2.6 | 10.4 | 0.00 | 0.00 | 0.00 | 56 | 1014.0 |
| 20260503043047 | 54 | 105 | 2.6 | 8.7 | 0.00 | 0.00 | 0.00 | 69 | 1013.7 |
| 20260503041545 | 53 | 131 | 3.5 | 11.3 | 0.00 | 0.00 | 0.00 | 75 | 1013.6 |
| 20260503040049 | 53 | 180 | 3.5 | 11.3 | 0.00 | 0.00 | 0.00 | 74 | 1013.5 |
| 20260503034552 | 53 | 150 | 4.3 | 11.3 | 0.00 | 0.00 | 0.00 | 72 | 1013.4 |
| 20260503033057 | 55 | 140 | 6.1 | 15.6 | 0.00 | 0.00 | 0.00 | 61 | 1013.1 |
| 20260503031545 | 55 | 142 | 5.2 | 12.2 | 0.00 | 0.00 | 0.00 | 58 | 1013.3 |
| 20260503030050 | 56 | 144 | 7.8 | 15.6 | 0.00 | 0.00 | 0.00 | 53 | 1013.2 |
| 20260503024549 | 55 | 167 | 4.3 | 14.8 | 0.00 | 0.00 | 0.00 | 66 | 1013.3 |
| 20260503023050 | 55 | 140 | 4.3 | 17.4 | 0.00 | 0.00 | 0.00 | 66 | 1013.3 |
| 20260503021552 | 54 | 137 | 5.2 | 21.7 | 0.00 | 0.00 | 0.00 | 66 | 1013.1 |
| 20260503020048 | 55 | 153 | 5.2 | 18.2 | 0.00 | 0.00 | 0.00 | 67 | 1013.4 |
| 20260503014601 | 54 | 157 | 4.3 | 18.2 | 0.00 | 0.00 | 0.00 | 76 | 1013.4 |
| 20260503013045 | 55 | 194 | 5.2 | 13.9 | 0.00 | 0.00 | 0.00 | 73 | 1013.6 |
| 20260503011600 | 56 | 154 | 6.1 | 19.1 | 0.00 | 0.00 | 0.00 | 69 | 1013.8 |
| 20260503010048 | 56 | 212 | 6.1 | 19.1 | 0.00 | 0.00 | 0.00 | 67 | 1013.8 |
| 20260503004545 | 57 | 150 | 5.2 | 17.4 | 0.00 | 0.00 | 0.00 | 62 | 1013.8 |
| 20260503003053 | 58 | 122 | 5.2 | 16.5 | 0.00 | 0.00 | 0.00 | 58 | 1013.8 |
| 20260503001542 | 58 | 144 | 5.2 | 13.0 | 0.00 | 0.00 | 0.00 | 55 | 1013.9 |
| 20260503000049 | 59 | 153 | 7.0 | 21.7 | 0.00 | 0.00 | 0.00 | 52 | 1014.0 |
| 20260502234608 | 59 | 172 | 7.0 | 18.2 | 0.00 | 0.00 | 0.00 | 46 | 1014.1 |
| 20260502233048 | 59 | 82 | 6.1 | 14.8 | 0.00 | 0.00 | 0.00 | 44 | 1014.3 |
| 20260502231550 | 60 | 147 | 6.1 | 15.6 | 0.00 | 0.00 | 0.00 | 43 | 1014.4 |
| 20260502230046 | 60 | 152 | 3.5 | 15.6 | 0.00 | 0.00 | 0.00 | 41 | 1014.7 |
| 20260502224548 | 60 | 98 | 4.3 | 13.0 | 0.00 | 0.00 | 0.00 | 39 | 1014.9 |
| 20260502223100 | 61 | 191 | 5.2 | 19.1 | 0.00 | 0.00 | 0.00 | 34 | 1015.1 |
| 20260502221549 | 62 | 130 | 4.3 | 18.2 | 0.00 | 0.00 | 0.00 | 28 | 1015.3 |
| 20260502220100 | 62 | 138 | 5.2 | 12.2 | 0.00 | 0.00 | 0.00 | 30 | 1015.4 |
| 20260502214553 | 62 | 129 | 2.6 | 11.3 | 0.00 | 0.00 | 0.00 | 28 | 1015.4 |
| 20260502213051 | 63 | 135 | 5.2 | 14.8 | 0.00 | 0.00 | 0.00 | 27 | 1015.5 |
| 20260502211550 | 63 | 125 | 5.2 | 15.6 | 0.00 | 0.00 | 0.00 | 28 | 1015.5 |
| 20260502210050 | 63 | 146 | 5.2 | 13.9 | 0.00 | 0.00 | 0.00 | 26 | 1015.8 |
| 20260502204547 | 62 | 127 | 7.8 | 21.7 | 0.00 | 0.00 | 0.00 | 27 | 1016.0 |
| 20260502203107 | 62 | 136 | 5.2 | 20.0 | 0.00 | 0.00 | 0.00 | 31 | 1016.1 |
| 20260502201548 | 61 | 133 | 5.2 | 15.6 | 0.00 | 0.00 | 0.00 | 29 | 1016.1 |
| 20260502200056 | 61 | 153 | 7.8 | 16.5 | 0.00 | 0.00 | 0.00 | 31 | 1016.2 |
| 20260502194542 | 62 | 154 | 7.0 | 20.9 | 0.00 | 0.00 | 0.00 | 29 | 1016.2 |
| 20260502193101 | 62 | 151 | 6.1 | 21.7 | 0.00 | 0.00 | 0.00 | 31 | 1016.1 |
| 20260502191545 | 61 | 143 | 8.7 | 22.6 | 0.00 | 0.00 | 0.00 | 34 | 1016.2 |
| 20260502190049 | 61 | 148 | 3.5 | 16.5 | 0.00 | 0.00 | 0.00 | 33 | 1016.2 |
| 20260502184553 | 60 | 128 | 6.1 | 14.8 | 0.00 | 0.00 | 0.00 | 34 | 1016.2 |
| 20260502183044 | 61 | 122 | 5.2 | 13.9 | 0.00 | 0.00 | 0.00 | 33 | 1016.1 |
| 20260502181546 | 61 | 155 | 5.2 | 13.0 | 0.00 | 0.00 | 0.00 | 35 | 1016.2 |